Cloud_Cover
3 21 99 100 90 100 100 100 100 100 86 100 100 96 86 67 11 46 100 100 100 99 86 86 93 100 100 100 100 100 100 100 100 100 100 100 100 100 100 100 100 97 100 100
78 82 98 100 100 100 100 100 100 100 94 100 100 100 18 21 51 44 12 100 100 100 98 98 92 100 100 100 100 100 100 100 100 100 100 100 100 100 100 100 100 100 96 100
80 100 100 100 100 100 100 100 100 100 100 42 32 100 100 98 5 5 5 17 39 95 97 94 100 100 100 100 100 100 100 100 100 100 100 100 100 100 100 100 100 100 100 100
100 100 100 100 100 100 100 100 100 100 100 100 93 78 66 85 97 68 5 5 5 17 63 18 12 97 100 100 100 100 100 100 100 100 100 100 100 100 100 100 100 100 100 100
100 100 100 100 100 100 100 100 100 100 71 100 100 100 60 100 100 75 5 5 5 2 2 6 5 20 5 88 82 100 100 100 100 100 100 100 100 100 100 100 100 100 100 100
100 100 100 100 100 100 100 100 100 100 100 100 100 96 100 99 100 92 11 14 5 5 5 0 0 1 2 42 5 64 4 100 100 16 100 100 96 100 100 100 100 92 19 96
100 100 100 100 100 100 100 100 100 100 100 58 94 100 100 100 100 99 100 89 62 85 7 40 12 5 2 0 0 2 23 94 100 100 100 100 52 67 100 100 88 62 88 100
100 100 100 100 100 100 100 100 100 100 100 100 100 100 100 100 100 100 100 100 100 91 24 94 51 4 0 0 4 0 1 12 100 100 90 14 7 100 100 100 100 99 60 90
100 100 100 100 100 100 100 100 100 100 100 100 100 100 100 100 100 99 100 100 100 64 7 87 90 16 0 7 90 26 59 100 79 100 100 62 4 100 100 100 92 100 100 35
100 100 100 100 100 100 100 100 100 100 100 100 100 100 100 100 100 94 100 100 55 48 8 100 99 97 52 3 95 84 83 100 100 100 98 42 70 100 100 100 74 100 75 6
100 100 100 100 100 100 100 100 100 100 100 100 100 100 100 100 100 100 100 100 96 84 65 34 46 51 68 20 4 2 39 87 76 74 86 100 100 100 100 93 99 100 100 55
100 100 100 100 100 100 100 100 100 100 100 99 100 100 100 100 99 100 100 100 100 95 5 20 5 1 7 5 13 3 4 0 5 2 90 100 100 100 100 100 100 98 100 68
100 100 100 100 100 100 100 100 100 100 100 100 86 100 95 100 94 100 100 100 100 100 100 98 65 6 5 4 4 56 5 4 5 1 0 3 100 100 100 100 100 97 100 72
100 100 100 100 100 100 100 100 100 100 100 100 100 100 100 100 100 100 100 100 100 100 99 11 18 61 4 4 5 21 2 6 0 0 76 100 100 100 100 100 100 100 100 100
100 89 99 28 100 100 100 100 100 94 91 100 100 100 100 100 100 100 100 100 100 100 100 94 66 30 24 98 100 70 100 44 15 0 79 100 100 100 100 100 100 100 100 100
100 100 95 15 71 100 100 100 100 100 99 46 78 100 100 100 100 100 100 100 100 100 100 100 70 6 89 98 99 100 100 100 100 100 98 100 100 100 100 100 100 100 100 100
100 100 100 100 100 99 100 97 69 100 91 100 99 70 92 100 100 100 100 100 98 100 99 70 6 100 92 100 100 100 100 100 100 75 27 100 100 100 100 100 100 100 100 96
100 100 100 100 100 100 98 100 100 100 100 100 100 98 96 100 100 96 65 100 100 100 63 78 100 100 100 100 100 100 100 100 98 98 100 100 100 100 100 100 100 100 100 100
100 100 100 100 100 100 100 100 100 100 100 100 100 100 100 100 100 99 100 100 100 100 98 78 100 100 100 100 100 100 100 100 99 100 100 100 100 100 100 100 100 100 100 61
100 100 100 100 100 100 100 100 100 100 100 100 97 100 100 93 91 77 100 100 100 100 99 100 100 99 100 100 100 100 100 100 100 100 100 100 100 100 100 100 100 100 100 100
100 100 100 100 100 100 100 100 100 97 97 84 80 99 90 99 100 100 100 100 100 100 100 100 100 98 100 100 100 100 100 100 100 100 100 100 100 100 100 100 100 100 100 100
99 73 100 100 94 100 100 89 72 78 93 100 100 100 100 100 100 100 100 100 100 100 100 100 100 100 92 100 100 100 100 100 100 100 100 100 100 100 100 100 100 100 100 100
100 100 100 88 65 80 86 92 92 98 100 100 100 100 100 100 100 100 100 100 100 100 100 100 100 100 100 100 100 100 100 100 100 100 100 100 100 100 100 100 100 100 100 100
100 100 100 100 100 100 100 100 100 100 100 100 100 100 100 100 100 100 100 100 100 97 90 100 100 100 100 100 100 100 100 100 100 100 100 100 100 100 100 100 100 100 100 100
100 100 100 100 100 100 100 100 100 100 100 100 100 100 100 100 100 100 100 100 100 100 100 100 100 100 100 99 100 100 100 100 100 100 100 100 100 100 100 100 100 100 100 100
100 92 100 89 100 100 100 100 100 100 100 100 100 100 100 100 100 100 100 98 98 100 100 100 100 100 100 100 100 100 100 100 100 100 100 100 100 100 100 100 100 100 100 100
100 100 100 95 98 99 100 100 100 100 100 100 100 100 100 100 100 100 100 100 100 100 100 100 100 100 100 100 100 100 100 100 100 100 100 100 100 100 100 100 100 100 100 100